Myrtle Beach, SC

9:18 AM EST on January 18, 2017 (GMT -0500)
Myrtle Beach International

Weather History for KMYR - September, 2012

Change the Weather History Date:

Monday, September 10, 2012

  Actual Average Record
Temperature  
Mean Temperature 70 °F -  
Max Temperature 80 °F 81 °F 90 °F (1990)
Min Temperature 60 °F 66 °F 47 °F (1956)
Cooling Degree Days 5    
Growing Degree Days 20 (Base 50)    
Moisture  
Dew Point 53 °F    
Average Humidity 63    
Maximum Humidity 77    
Minimum Humidity 32    
Precipitation  
Precipitation 0.00 in - - ()
Sea Level Pressure  
Sea Level Pressure 30.03 in    
Wind  
Wind Speed 5 mph (North)    
Max Wind Speed 15 mph    
Max Gust Speed -    
Visibility 10 miles    
Events      
Averages and records for this station are not official NWS values.
T = Trace of Precipitation, MM = Missing Value Source: NWS Daily Summary

Daily Weather History Graph

Daily Weather History Graph

Search for Another Location

Airport or City:

Trip Planner

Search our weather history database for the weather conditions in past years. The results will help you decide how hot, cold, wet, or windy it might be!

Date:

Astronomy

Sep. 10, 2012 Rise Set
Actual Time 6:56 AM EDT 7:28 PM EDT
Civil Twilight 6:30 AM EDT 7:53 PM EDT
Nautical Twilight 6:01 AM EDT 8:22 PM EDT
Astronomical Twilight 5:31 AM EDT 8:52 PM EDT
Moon 1:27 AM EDT (9/10) 3:45 PM EDT (9/10)
Length of Visible Light 13h 22m
Length of Day
12h 32m
Waning Crescent, 30% of the Moon is Illuminated
Sep 10
Waning Crescent
Sep 15
New
Sep 22
First Quarter
Sep 29
Full
Oct 8
Last Quarter

Hourly Weather History & Observations

Time (EDT) Temp. Heat Index Dew Point Humidity Pressure Visibility Wind Dir Wind Speed Gust Speed Precip Events Conditions
12:15 AM 66.2 °F - 55.4 °F 68% 29.98 in - North 3.5 mph - N/A   Clear
12:35 AM 66.2 °F - 55.4 °F 68% 29.98 in - North 4.6 mph - N/A   Clear
12:55 AM 66.2 °F - 53.6 °F 64% 29.97 in - North 5.8 mph - N/A   Clear
1:15 AM 64.4 °F - 55.4 °F 73% 29.97 in - North 5.8 mph - N/A   Clear
1:35 AM 64.4 °F - 53.6 °F 68% 29.97 in - North 4.6 mph - N/A   Clear
1:55 AM 64.4 °F - 53.6 °F 68% 29.97 in - NNW 5.8 mph - N/A   Clear
2:15 AM 62.6 °F - 53.6 °F 72% 29.97 in - NNW 4.6 mph - N/A   Clear
2:35 AM 64.4 °F - 53.6 °F 68% 29.97 in - NNW 4.6 mph - N/A   Clear
2:55 AM 62.6 °F - 51.8 °F 68% 29.97 in - NNW 4.6 mph - N/A   Clear
3:15 AM 62.6 °F - 53.6 °F 72% 29.96 in 10.0 mi NNW 4.6 mph - N/A   Clear
3:35 AM 62.6 °F - 53.6 °F 72% 29.96 in - NNW 5.8 mph - N/A   Clear
3:55 AM 62.6 °F - 51.8 °F 68% 29.97 in - North 3.5 mph - N/A   Clear
4:15 AM 62.6 °F - 53.6 °F 72% 29.97 in 10.0 mi Calm Calm - N/A   Clear
4:35 AM 62.6 °F - 53.6 °F 72% 29.97 in - Calm Calm - N/A   Clear
4:55 AM 60.8 °F - 51.8 °F 72% 29.97 in - Calm Calm - N/A   Clear
5:15 AM 62.6 °F - 51.8 °F 68% 29.98 in - Calm Calm - N/A   Clear
5:35 AM 62.6 °F - 53.6 °F 72% 29.98 in - Calm Calm - N/A   Clear
5:50 AM 60.8 °F - 51.8 °F 72% 30.00 in 10.0 mi NNW 5.8 mph - N/A   Clear
5:55 AM 60.8 °F - 51.8 °F 72% 30.00 in - NW 5.8 mph - N/A   Clear
7:50 AM 62.6 °F - 53.6 °F 72% 30.04 in 10.0 mi North 6.9 mph - N/A   Clear
8:45 AM 66.2 °F - 55.4 °F 68% 30.06 in 10.0 mi North 11.5 mph - N/A   Clear
9:45 AM 71.6 °F - 57.2 °F 60% 30.07 in 10.0 mi North 11.5 mph - N/A   Clear
10:45 AM 75.2 °F - 57.2 °F 53% 30.09 in 10.0 mi North 13.8 mph - N/A   Clear
11:45 AM 77.0 °F - 55.4 °F 47% 30.09 in 10.0 mi North 9.2 mph - N/A   Clear
12:50 PM 80.6 °F 80.3 °F 53.6 °F 39% 30.08 in 10.0 mi NNE 13.8 mph - N/A   Clear
1:50 PM 80.6 °F - 51.8 °F 37% 30.07 in 10.0 mi North 15.0 mph - N/A   Clear
2:45 PM 80.6 °F - 48.2 °F 32% 30.06 in 10.0 mi North 11.5 mph - N/A   Clear
4:45 PM 80.6 °F - 48.2 °F 32% 30.05 in 10.0 mi NNE 11.5 mph - N/A   Clear
5:45 PM 80.6 °F - 50.0 °F 34% 30.07 in 10.0 mi North 12.7 mph - N/A   Clear
6:45 PM 78.8 °F - 50.0 °F 36% 30.08 in 10.0 mi NNW 5.8 mph - N/A   Partly Cloudy
7:50 PM 69.8 °F - 53.6 °F 56% 30.09 in 10.0 mi Calm Calm - N/A   Partly Cloudy
8:45 PM 66.2 °F - 53.6 °F 64% 30.11 in 10.0 mi Calm Calm - N/A   Clear
9:45 PM 64.4 °F - 55.4 °F 73% - - North - - N/A   Clear
11:15 PM 64.4 °F - 55.4 °F 73% 30.14 in 10.0 mi NNW 4.6 mph - N/A   Clear
11:35 PM 64.4 °F - 57.2 °F 77% 30.14 in 10.0 mi North 6.9 mph - N/A   Clear
11:55 PM 64.4 °F - 55.4 °F 73% 30.15 in 10.0 mi NNE 5.8 mph - N/A   Clear